Overview Statistics Trail Chart Weather Telemetry Raw packets
 

This is the latest recevied weather packets stored in our database for station/object OK1FET-5. If no packets are shown the sender has not sent any weather packets the latest 10 day(s).

<< 42 43 44 45 46 47 48 >>
Time Temp. Humidity Pressure Rain* Wind** Luminosity Snow
1787901545 21.11° C 60% 1015.3 hPa - - - -
1787900949 20.56° C 60% 1015.5 hPa - - - -
1787900353 20.56° C 59% 1015.6 hPa - - - -
1787899758 20.56° C 60% 1015.7 hPa - - - -
1787899162 20.56° C 60% 1015.7 hPa - - - -
1787898566 20° C 61% 1015.7 hPa - - - -
1787897970 20.56° C 60% 1015.5 hPa - - - -
1787897374 20° C 60% 1015.3 hPa - - - -
1787896779 20° C 60% 1015.3 hPa - - - -
1787896183 20° C 60% 1015.3 hPa - - - -
1787895587 19.44° C 62% 1015.4 hPa - - - -
1787893800 18.33° C 63% 1015.2 hPa - - - -
1787893204 18.33° C 63% 1015.4 hPa - - - -
1787892608 17.78° C 64% 1015.6 hPa - - - -
1787892013 17.78° C 64% 1015.4 hPa - - - -
1787891417 17.22° C 65% 1015.7 hPa - - - -
1787890821 17.22° C 64% 1015.5 hPa - - - -
1787890225 17.22° C 64% 1015.4 hPa - - - -
1787889629 17.78° C 64% 1015.5 hPa - - - -
1787889034 17.78° C 63% 1015.8 hPa - - - -
1787888438 17.78° C 63% 1016 hPa - - - -
1787887842 17.78° C 63% 1015.7 hPa - - - -
1787887246 17.78° C 62% 1015.9 hPa - - - -
1787886651 17.78° C 62% 1015.8 hPa - - - -
1787886055 17.78° C 62% 1015.9 hPa - - - -

* Rain since midnight (hover to see other rain measurements)
** Current wind speed in m/s (hover to see current wind gust speed)